Location: Newark
(33.8183°N, 118.0392°W)
Time: 03:18:41
(UTC+00:00)

Hubble Space Telescope - Pass Details

Date: 13 October 2019
Orbit: 536 x 540 km, 28.5° (Epoch: 17 November)

Event Time Altitude Azimuth Distance (km) Brightness Sun altitude
Rises 01:40:40 0° 263° (W) 2,677 7.5 -4.7°
Reaches altitude 10° 01:43:23 10° 246° (WSW) 1,785 4.9 -5.2°
Maximum altitude 01:46:25 20° 198° (SSW) 1,274 3.0 -5.8°
Drops below altitude 10° 01:49:28 10° 151° (SSE) 1,782 3.2 -6.5°
Sets 01:52:10 0° 134° (SE) 2,671 3.9 -7.0°
